| time (UTC) | temp F | wind direction | speed MPH | gust MPH | rain 1hr in | rain 24hr in | rain mn in | humidity % | barometer mb |
| 20260831170004 | 87 | 209 | 6.0 | 10.0 | 0.00 | 0.30 | 0.00 | 66 | 1014.5 |
| 20260831165005 | 87 | 217 | 6.0 | 9.0 | 0.00 | 0.32 | 0.00 | 65 | 1014.6 |
| 20260831164505 | 87 | 217 | 5.0 | 13.0 | 0.00 | 0.32 | 0.00 | 66 | 1014.7 |
| 20260831164004 | 86 | 228 | 8.0 | 12.0 | 0.00 | 0.33 | 0.00 | 67 | 1014.7 |
| 20260831163005 | 86 | 226 | 9.0 | 13.0 | 0.00 | 0.33 | 0.00 | 66 | 1014.7 |
| 20260831162504 | 85 | 236 | 6.0 | 15.0 | 0.00 | 0.33 | 0.00 | 67 | 1014.7 |
| 20260831161505 | 86 | 236 | 6.0 | 12.0 | 0.00 | 0.33 | 0.00 | 68 | 1014.8 |
| 20260831161005 | 84 | 224 | 7.0 | 13.0 | 0.00 | 0.33 | 0.00 | 66 | 1014.7 |
| 20260831155005 | 84 | 226 | 7.0 | 13.0 | 0.00 | 0.33 | 0.00 | 68 | 1014.4 |
| 20260831154504 | 84 | 242 | 5.0 | 14.0 | 0.00 | 0.33 | 0.00 | 69 | 1014.2 |
| 20260831153505 | 84 | 217 | 9.0 | 16.0 | 0.00 | 0.33 | 0.00 | 67 | 1014.2 |
| 20260831153004 | 83 | 216 | 8.0 | 17.0 | 0.00 | 0.33 | 0.00 | 68 | 1014.0 |
| 20260831152504 | 84 | 231 | 12.0 | 16.0 | 0.00 | 0.33 | 0.00 | 66 | 1014.1 |
| 20260831152004 | 84 | 213 | 5.0 | 14.0 | 0.00 | 0.33 | 0.00 | 70 | 1014.1 |
| 20260831150504 | 83 | 235 | 6.0 | 10.0 | 0.00 | 0.33 | 0.00 | 73 | 1013.9 |
| 20260831145004 | 81 | 205 | 6.0 | 12.0 | 0.00 | 0.33 | 0.00 | 72 | 1013.6 |
| 20260831144005 | 81 | 209 | 6.0 | 10.0 | 0.00 | 0.33 | 0.00 | 73 | 1013.7 |
| 20260831143504 | 81 | 206 | 6.0 | 12.0 | 0.00 | 0.33 | 0.00 | 73 | 1013.6 |
| 20260831141004 | 79 | 206 | 2.0 | 7.0 | 0.00 | 0.33 | 0.00 | 77 | 1013.5 |
| 20260831140505 | 79 | 196 | 4.0 | 8.0 | 0.00 | 0.33 | 0.00 | 76 | 1013.6 |
| 20260831140004 | 78 | 207 | 5.0 | 9.0 | 0.00 | 0.33 | 0.00 | 78 | 1013.7 |
| 20260831135005 | 78 | 192 | 5.0 | 8.0 | 0.00 | 0.33 | 0.00 | 77 | 1013.6 |
| 20260831133504 | 77 | 207 | 6.0 | 10.0 | 0.00 | 0.33 | 0.00 | 78 | 1013.5 |
| 20260831133005 | 77 | 216 | 5.0 | 7.0 | 0.00 | 0.33 | 0.00 | 79 | 1013.6 |
| 20260831132504 | 76 | 200 | 4.0 | 8.0 | 0.00 | 0.33 | 0.00 | 80 | 1013.6 |
| 20260831132004 | 76 | 207 | 4.0 | 8.0 | 0.00 | 0.33 | 0.00 | 80 | 1013.6 |
| 20260831131505 | 75 | 199 | 6.0 | 12.0 | 0.00 | 0.33 | 0.00 | 81 | 1013.6 |
| 20260831130005 | 74 | 209 | 5.0 | 10.0 | 0.00 | 0.33 | 0.00 | 82 | 1013.6 |
| 20260831125005 | 74 | 194 | 6.0 | 9.0 | 0.00 | 0.33 | 0.00 | 82 | 1013.5 |
| 20260831124504 | 74 | 195 | 5.0 | 9.0 | 0.00 | 0.33 | 0.00 | 83 | 1013.5 |
| 20260831123035 | 73 | 198 | 7.0 | 12.0 | 0.00 | 0.33 | 0.00 | 83 | 1013.5 |
| 20260831121504 | 72 | 206 | 5.0 | 10.0 | 0.00 | 0.33 | 0.00 | 84 | 1013.4 |
| 20260831121004 | 72 | 197 | 4.0 | 7.0 | 0.00 | 0.33 | 0.00 | 84 | 1013.3 |
| 20260831120504 | 72 | 209 | 4.0 | 7.0 | 0.00 | 0.33 | 0.00 | 84 | 1013.2 |
| 20260831115505 | 72 | 214 | 4.0 | 9.0 | 0.00 | 0.33 | 0.00 | 83 | 1013.2 |
| 20260831114504 | 72 | 189 | 7.0 | 12.0 | 0.00 | 0.33 | 0.00 | 83 | 1013.0 |
| 20260831114004 | 72 | 190 | 6.0 | 10.0 | 0.00 | 0.33 | 0.00 | 83 | 1013.0 |
| 20260831112505 | 73 | 195 | 6.0 | 12.0 | 0.00 | 0.33 | 0.00 | 82 | 1013.1 |
| 20260831111004 | 73 | 188 | 7.0 | 10.0 | 0.00 | 0.33 | 0.00 | 82 | 1013.1 |
| 20260831110504 | 73 | 184 | 5.0 | 12.0 | 0.00 | 0.33 | 0.00 | 82 | 1013.2 |
| 20260831105504 | 73 | 180 | 6.0 | 10.0 | 0.00 | 0.33 | 0.00 | 81 | 1013.3 |
| 20260831105004 | 73 | 195 | 7.0 | 10.0 | 0.00 | 0.33 | 0.00 | 81 | 1013.3 |
| 20260831104505 | 73 | 206 | 5.0 | 12.0 | 0.00 | 0.33 | 0.00 | 81 | 1013.4 |
| 20260831104005 | 73 | 192 | 6.0 | 9.0 | 0.00 | 0.33 | 0.00 | 81 | 1013.3 |
| 20260831102504 | 73 | 194 | 6.0 | 9.0 | 0.00 | 0.33 | 0.00 | 81 | 1013.4 |
| 20260831102004 | 73 | 184 | 6.0 | 10.0 | 0.00 | 0.33 | 0.00 | 82 | 1013.4 |
| 20260831101504 | 73 | 183 | 5.0 | 12.0 | 0.00 | 0.33 | 0.00 | 82 | 1013.5 |
| 20260831101004 | 73 | 193 | 4.0 | 9.0 | 0.00 | 0.33 | 0.00 | 82 | 1013.5 |
| 20260831100504 | 73 | 196 | 5.0 | 9.0 | 0.00 | 0.33 | 0.00 | 82 | 1013.4 |
| 20260831100004 | 73 | 182 | 6.0 | 10.0 | 0.00 | 0.33 | 0.00 | 82 | 1013.5 |
| 20260831095503 | 73 | 198 | 5.0 | 7.0 | 0.00 | 0.33 | 0.00 | 82 | 1013.4 |
| 20260831092504 | 73 | 186 | 6.0 | 12.0 | 0.00 | 0.33 | 0.00 | 82 | 1013.4 |
| 20260831085504 | 72 | 180 | 5.0 | 9.0 | 0.00 | 0.33 | 0.00 | 83 | 1013.6 |
| 20260831085005 | 72 | 177 | 5.0 | 12.0 | 0.00 | 0.33 | 0.00 | 83 | 1013.6 |
| 20260831084504 | 72 | 185 | 6.0 | 12.0 | 0.00 | 0.33 | 0.00 | 84 | 1013.6 |
| 20260831082504 | 71 | 161 | 3.0 | 6.0 | 0.00 | 0.33 | 0.00 | 85 | 1013.5 |
| 20260831082004 | 71 | 159 | 2.0 | 5.0 | 0.00 | 0.33 | 0.00 | 85 | 1013.5 |
| 20260831080004 | 72 | 175 | 5.0 | 7.0 | 0.00 | 0.33 | 0.00 | 85 | 1013.3 |
| 20260831075004 | 72 | 163 | 5.0 | 7.0 | 0.00 | 0.33 | 0.00 | 85 | 1013.3 |
| 20260831074504 | 72 | 165 | 4.0 | 6.0 | 0.00 | 0.33 | 0.00 | 85 | 1013.3 |
| 20260831074004 | 72 | 169 | 5.0 | 8.0 | 0.00 | 0.33 | 0.00 | 85 | 1013.3 |
| 20260831071004 | 72 | 158 | 5.0 | 8.0 | 0.00 | 0.33 | 0.00 | 86 | 1013.7 |
| 20260831065504 | 73 | 147 | 5.0 | 10.0 | 0.00 | 0.33 | 0.00 | 85 | 1013.8 |
| 20260831065004 | 73 | 144 | 6.0 | 9.0 | 0.00 | 0.33 | 0.00 | 85 | 1013.9 |
| 20260831064504 | 73 | 142 | 6.0 | 8.0 | 0.00 | 0.33 | 0.00 | 86 | 1013.9 |
| 20260831064003 | 73 | 135 | 5.0 | 8.0 | 0.00 | 0.33 | 0.00 | 86 | 1013.9 |
| 20260831063004 | 73 | 130 | 5.0 | 9.0 | 0.00 | 0.33 | 0.00 | 86 | 1014.1 |
| 20260831061504 | 73 | 139 | 7.0 | 10.0 | 0.00 | 0.33 | 0.00 | 86 | 1014.1 |
| 20260831061004 | 73 | 135 | 7.0 | 9.0 | 0.00 | 0.33 | 0.00 | 86 | 1014.2 |
| 20260831055504 | 73 | 137 | 5.0 | 8.0 | 0.00 | 0.33 | 0.00 | 87 | 1014.1 |
| 20260831054004 | 73 | 134 | 4.0 | 8.0 | 0.00 | 0.33 | 0.00 | 87 | 1014.1 |
| 20260831053004 | 73 | 140 | 6.0 | 9.0 | 0.00 | 0.33 | 0.00 | 88 | 1014.2 |
| 20260831052503 | 73 | 133 | 3.0 | 3.0 | 0.00 | 0.33 | 0.00 | 88 | 1014.1 |
| 20260831051504 | 73 | 146 | 4.0 | 7.0 | 0.00 | 0.33 | 0.00 | 88 | 1014.2 |
| 20260831051004 | 73 | 146 | 5.0 | 7.0 | 0.00 | 0.33 | 0.00 | 88 | 1014.1 |
| 20260831050504 | 74 | 133 | 6.0 | 9.0 | 0.00 | 0.33 | 0.00 | 88 | 1014.1 |
| 20260831050004 | 73 | 143 | 5.0 | 12.0 | 0.00 | 0.33 | 0.00 | 88 | 1014.2 |
| 20260831044504 | 73 | 145 | 5.0 | 8.0 | 0.00 | 0.33 | 0.33 | 89 | 1014.2 |
| 20260831043006 | 73 | 133 | 5.0 | 7.0 | 0.00 | 0.33 | 0.33 | 90 | 1014.2 |
| 20260831041006 | 73 | 143 | 5.0 | 9.0 | 0.00 | 0.33 | 0.33 | 90 | 1014.2 |
| 20260831040005 | 73 | 134 | 7.0 | 12.0 | 0.00 | 0.33 | 0.33 | 90 | 1014.2 |
| 20260831035506 | 73 | 132 | 7.0 | 10.0 | 0.00 | 0.33 | 0.33 | 90 | 1014.2 |
| 20260831035006 | 73 | 135 | 6.0 | 9.0 | 0.00 | 0.33 | 0.33 | 90 | 1014.4 |
| 20260831034505 | 73 | 134 | 7.0 | 12.0 | 0.00 | 0.33 | 0.33 | 91 | 1014.5 |
| 20260831034006 | 73 | 138 | 5.0 | 12.0 | 0.00 | 0.33 | 0.33 | 91 | 1014.5 |
| 20260831033505 | 73 | 123 | 8.0 | 10.0 | 0.00 | 0.33 | 0.33 | 91 | 1014.4 |
| 20260831032506 | 72 | 127 | 6.0 | 9.0 | 0.00 | 0.33 | 0.33 | 92 | 1014.7 |
| 20260831031505 | 72 | 127 | 6.0 | 9.0 | 0.00 | 0.33 | 0.33 | 92 | 1014.8 |
| 20260831031006 | 72 | 125 | 6.0 | 8.0 | 0.00 | 0.33 | 0.33 | 92 | 1014.8 |
| 20260831025505 | 72 | 119 | 3.0 | 6.0 | 0.00 | 0.33 | 0.33 | 92 | 1015.0 |
| 20260831024006 | 72 | 95 | 5.0 | 7.0 | 0.00 | 0.34 | 0.33 | 92 | 1014.9 |
| 20260831021505 | 73 | 103 | 5.0 | 6.0 | 0.00 | 0.35 | 0.33 | 90 | 1014.9 |
| 20260831021005 | 73 | 108 | 6.0 | 9.0 | 0.00 | 0.35 | 0.33 | 90 | 1014.8 |
| 20260831013505 | 73 | 90 | 6.0 | 8.0 | 0.00 | 0.35 | 0.33 | 90 | 1014.6 |
| 20260831013006 | 73 | 83 | 5.0 | 7.0 | 0.00 | 0.35 | 0.33 | 90 | 1014.7 |
| 20260831012505 | 73 | 87 | 5.0 | 6.0 | 0.00 | 0.35 | 0.33 | 89 | 1014.6 |
| 20260831012005 | 73 | 97 | 4.0 | 7.0 | 0.00 | 0.35 | 0.33 | 89 | 1014.7 |
| 20260831011506 | 74 | 107 | 2.0 | 3.0 | 0.00 | 0.35 | 0.33 | 88 | 1014.7 |
| 20260831011005 | 74 | 103 | 3.0 | 6.0 | 0.00 | 0.35 | 0.33 | 88 | 1014.6 |
| 20260831004006 | 74 | 112 | 7.0 | 12.0 | 0.00 | 0.35 | 0.33 | 87 | 1014.2 |
| 20260831003505 | 74 | 103 | 8.0 | 10.0 | 0.00 | 0.35 | 0.33 | 87 | 1014.2 |
| 20260831001006 | 75 | 105 | 7.0 | 12.0 | 0.00 | 0.35 | 0.33 | 87 | 1014.5 |
| 20260831000505 | 75 | 109 | 7.0 | 9.0 | 0.00 | 0.35 | 0.33 | 87 | 1014.7 |
| 20260830235505 | 75 | 95 | 6.0 | 10.0 | 0.00 | 0.35 | 0.33 | 87 | 1014.7 |
| 20260830235006 | 75 | 96 | 6.0 | 9.0 | 0.00 | 0.35 | 0.33 | 88 | 1014.6 |
| 20260830233005 | 75 | 89 | 3.0 | 6.0 | 0.00 | 0.35 | 0.33 | 89 | 1014.7 |
| 20260830232505 | 75 | 86 | 3.0 | 6.0 | 0.00 | 0.35 | 0.33 | 89 | 1014.6 |
| 20260830231505 | 75 | 92 | 2.0 | 3.0 | 0.00 | 0.35 | 0.33 | 89 | 1014.7 |
| 20260830230505 | 75 | 63 | 2.0 | 3.0 | 0.00 | 0.35 | 0.33 | 89 | 1014.9 |
| 20260830225505 | 75 | 117 | 1.0 | 2.0 | 0.00 | 0.35 | 0.33 | 88 | 1014.9 |
| 20260830224505 | 75 | 117 | 2.0 | 3.0 | 0.00 | 0.35 | 0.33 | 88 | 1014.7 |
| 20260830224005 | 75 | 163 | 1.0 | 2.0 | 0.00 | 0.35 | 0.33 | 88 | 1014.8 |
| 20260830223505 | 75 | 163 | 1.0 | 2.0 | 0.00 | 0.35 | 0.33 | 87 | 1014.9 |
| 20260830223005 | 75 | 163 | 1.0 | 2.0 | 0.00 | 0.35 | 0.33 | 87 | 1015.0 |
| 20260830222505 | 75 | 163 | 1.0 | 3.0 | 0.00 | 0.35 | 0.33 | 88 | 1015.0 |
| 20260830222005 | 75 | 147 | 2.0 | 3.0 | 0.00 | 0.35 | 0.33 | 88 | 1015.0 |
| 20260830221505 | 75 | 158 | 2.0 | 3.0 | 0.00 | 0.35 | 0.33 | 88 | 1014.9 |
| 20260830221006 | 75 | 152 | 1.0 | 2.0 | 0.00 | 0.35 | 0.33 | 88 | 1015.0 |
| 20260830215006 | 74 | 151 | 4.0 | 7.0 | 0.00 | 0.35 | 0.33 | 88 | 1014.8 |
| 20260830214005 | 73 | 154 | 4.0 | 7.0 | 0.01 | 0.35 | 0.33 | 91 | 1014.6 |
| 20260830213505 | 73 | 136 | 5.0 | 8.0 | 0.01 | 0.35 | 0.33 | 90 | 1014.5 |
| 20260830213006 | 73 | 143 | 7.0 | 9.0 | 0.02 | 0.35 | 0.33 | 91 | 1014.5 |
| 20260830212005 | 72 | 137 | 6.0 | 9.0 | 0.05 | 0.35 | 0.33 | 91 | 1014.6 |
| 20260830211005 | 72 | 122 | 5.0 | 10.0 | 0.12 | 0.35 | 0.33 | 91 | 1014.7 |
| 20260830210006 | 72 | 141 | 4.0 | 9.0 | 0.13 | 0.35 | 0.33 | 92 | 1014.9 |
| 20260830203505 | 71 | 147 | 12.0 | 18.0 | 0.18 | 0.34 | 0.32 | 92 | 1013.7 |
| 20260830202505 | 71 | 128 | 13.0 | 16.0 | 0.20 | 0.32 | 0.30 | 92 | 1014.1 |
| 20260830200505 | 71 | 145 | 7.0 | 12.0 | 0.12 | 0.23 | 0.21 | 92 | 1015.7 |
| 20260830200005 | 71 | 154 | 6.0 | 12.0 | 0.11 | 0.22 | 0.20 | 91 | 1016.0 |
| 20260830195005 | 71 | 141 | 7.0 | 10.0 | 0.08 | 0.19 | 0.17 | 91 | 1016.1 |
| 20260830193505 | 71 | 181 | 3.0 | 3.0 | 0.05 | 0.16 | 0.14 | 91 | 1016.7 |
| 20260830192504 | 72 | 177 | 3.0 | 3.0 | 0.01 | 0.12 | 0.10 | 90 | 1016.5 |
| 20260830192005 | 72 | 155 | 1.0 | 3.0 | 0.01 | 0.12 | 0.10 | 90 | 1016.1 |
| 20260830191505 | 72 | 173 | 2.0 | 3.0 | 0.00 | 0.11 | 0.09 | 90 | 1016.4 |
| 20260830191005 | 72 | 195 | 3.0 | 3.0 | 0.00 | 0.11 | 0.09 | 90 | 1016.6 |
| 20260830190505 | 72 | 184 | 3.0 | 7.0 | 0.00 | 0.11 | 0.09 | 90 | 1016.4 |
| 20260830185504 | 72 | 182 | 4.0 | 6.0 | 0.01 | 0.11 | 0.09 | 89 | 1016.1 |
| 20260830183504 | 72 | 158 | 2.0 | 7.0 | 0.02 | 0.12 | 0.09 | 90 | 1016.4 |
| 20260830182505 | 72 | 150 | 3.0 | 6.0 | 0.03 | 0.12 | 0.09 | 91 | 1015.8 |
| 20260830182005 | 72 | 101 | 4.0 | 7.0 | 0.04 | 0.12 | 0.09 | 91 | 1015.6 |
| 20260830181005 | 72 | 120 | 5.0 | 8.0 | 0.04 | 0.12 | 0.09 | 91 | 1015.7 |
| 20260830180504 | 71 | 138 | 4.0 | 6.0 | 0.06 | 0.13 | 0.09 | 91 | 1016.1 |
| 20260830175005 | 71 | 191 | 3.0 | 3.0 | 0.05 | 0.12 | 0.08 | 91 | 1016.6 |
| 20260830174504 | 71 | 184 | 3.0 | 3.0 | 0.07 | 0.12 | 0.08 | 91 | 1016.4 |
| 20260830173505 | 71 | 214 | 1.0 | 3.0 | 0.07 | 0.12 | 0.07 | 91 | 1016.3 |
| 20260830173004 | 71 | 269 | 1.0 | 2.0 | 0.07 | 0.13 | 0.07 | 91 | 1016.3 |
| 20260830172505 | 71 | 269 | 1.0 | 3.0 | 0.06 | 0.13 | 0.06 | 90 | 1016.3 |
| 20260830172005 | 71 | 263 | 2.0 | 3.0 | 0.05 | 0.12 | 0.05 | 90 | 1016.4 |
| 20260830171504 | 71 | 17 | 1.0 | 2.0 | 0.05 | 0.13 | 0.05 | 90 | 1016.1 |